This is the latest recevied weather packets stored in our database for station/object PA3BWK. If no packets are shown the sender has not sent any weather packets the latest 10 day(s).
| Time | Temp. | Humidity | Pressure | Rain* | Wind** | Luminosity | Snow |
|---|---|---|---|---|---|---|---|
| 1777304694 | 15.56° C | 44% | 1023.3 hPa | 0 mm | - | 225 W/m² | - |
| 1777304633 | 15.56° C | 44% | 1023.2 hPa | 0 mm | - | 229 W/m² | - |
| 1777304574 | 15.56° C | 44% | 1023.2 hPa | 0 mm | - | 232 W/m² | - |
| 1777304515 | 15.56° C | 43% | 1023.2 hPa | 0 mm | - | 246 W/m² | - |
| 1777304454 | 15.56° C | 44% | 1023.2 hPa | 0 mm | - | 260 W/m² | - |
| 1777304393 | 15.56° C | 44% | 1023.2 hPa | 0 mm | - | 264 W/m² | - |
| 1777304335 | 15.56° C | 44% | 1023.2 hPa | 0 mm | - | 269 W/m² | - |
| 1777304274 | 15.56° C | 44% | 1023.2 hPa | 0 mm | - | 276 W/m² | - |
| 1777304214 | 15.56° C | 42% | 1023.2 hPa | 0 mm | - | 303 W/m² | - |
| 1777304153 | 15.56° C | 43% | 1023.2 hPa | 0 mm | - | 297 W/m² | - |
| 1777304093 | 15.56° C | 42% | 1023.2 hPa | 0 mm | - | 292 W/m² | - |
| 1777304033 | 15.56° C | 44% | 1023.2 hPa | 0 mm | - | 304 W/m² | - |
| 1777303975 | 16.11° C | 42% | 1023.2 hPa | 0 mm | - | 318 W/m² | - |
| 1777303915 | 15.56° C | 42% | 1023.2 hPa | 0 mm | - | 318 W/m² | - |
| 1777303854 | 16.11° C | 42% | 1023.2 hPa | 0 mm | - | 311 W/m² | - |
| 1777303793 | 16.11° C | 42% | 1023.2 hPa | 0 mm | - | 320 W/m² | - |
| 1777303733 | 16.11° C | 43% | 1023.3 hPa | 0 mm | - | 329 W/m² | - |
| 1777303674 | 16.11° C | 45% | 1023.3 hPa | 0 mm | - | 329 W/m² | - |
| 1777303614 | 15.56° C | 42% | 1023.3 hPa | 0 mm | - | 318 W/m² | - |
| 1777303553 | 15.56° C | 42% | 1023.3 hPa | 0 mm | - | 334 W/m² | - |
| 1777303493 | 16.11° C | 44% | 1023.4 hPa | 0 mm | - | 322 W/m² | - |
| 1777303433 | 15.56° C | 45% | 1023.3 hPa | 0 mm | - | 332 W/m² | - |
| 1777303373 | 15.56° C | 42% | 1023.4 hPa | 0 mm | - | 315 W/m² | - |
| 1777303314 | 15.56° C | 43% | 1023.3 hPa | 0 mm | - | 310 W/m² | - |
| 1777303253 | 15.56° C | 44% | 1023.3 hPa | 0 mm | - | 324 W/m² | - |
* Rain latest hour (hover to see other rain measurements)
** Current wind speed in m/s (hover to see current wind gust speed)